Regional Weather Roundup
Issued by NWS

Home | Current Version | Previous Version | Graphics & Text | Print | Product List | Glossary On
Versions: 1 2 3 4 5 6 7 8 9 10 11 12 13 14 15 16 17 18 19 20 21 22 23 24 25 26 27 28 29 30 31 32 33 34 35 36 37 38 39 40 41 42 43 44 45 46 47 48 49 50
848
ASUS45 KTFX 271310
RWRMT
MONTANA REGIONAL WEATHER ROUNDUP
NATIONAL WEATHER SERVICE GREAT FALLS MT
700 AM MDT SAT MAY 27 2017

NOTE: "FAIR" INDICATES FEW OR NO CLOUDS BELOW 12000 FEET WITH NO
SIGNIFICANT WEATHER AND/OR OBSTRUCTIONS TO VISIBILITY.

MTZ001>007-043-271400-
WEST OF THE DIVIDE

CITY           SKY/WX    TMP DP  RH WIND       PRES   REMARKS
KALISPELL      MOSUNNY   41  39  93 CALM      30.10R
MISSOULA       CLEAR     47  41  80 CALM      30.15R
BUTTE          SUNNY     38  33  82 SE6       30.18R
MULLAN PASS    PTCLDY    46  31  55 NW6       30.18R
ANACONDA         N/A     50  37  62 CALM      30.15R
DEER LODGE       N/A     43  37  81 CALM      30.18R
EUREKA           N/A     39  36  87 CALM      30.12R
HAMILTON         N/A     48  37  66 S7        30.15R
PLAINS           N/A     41  35  79 CALM      30.11R
RONAN            N/A     45  40  82 CALM      30.13R
$$

MTZ008-052>055-271400-
SOUTHWEST MONTANA

CITY           SKY/WX    TMP DP  RH WIND       PRES   REMARKS
BOZEMAN        CLOUDY    40  37  89 SE5       30.15R
DILLON         CLOUDY    43  35  73 W5        30.16R
ENNIS          MOSUNNY   37  34  87 W5        30.21R
THREE FORKS      N/A     40  39  96 CALM      30.12R
TWIN BRIDGES     N/A     39  31  73 CALM      30.13R
$$

MTZ009-010-012-014-046-048-049-054-271400-
EAST SLOPES AND CENTRAL MONTANA

CITY           SKY/WX    TMP DP  RH WIND       PRES   REMARKS
CUT BANK       CLOUDY    46  37  71 W13       30.03R
GREAT FALLS    CLOUDY    49  38  65 SW12      30.05R
MALMSTROM AFB  CLOUDY    49  40  73 SW8       30.05R
HELENA         SUNNY     45  40  82 CALM      30.12R
CHOTEAU          N/A     52  36  54 SW7       30.07R
CONRAD           N/A     58  42  55 SW16      30.03S
$$

MTZ011-013-016-021-045-047-050-051-271400-
NORTH CENTRAL MONTANA

CITY           SKY/WX    TMP DP  RH WIND       PRES   REMARKS
HAVRE          CLOUDY    53  40  61 SW18      29.95R
LEWISTOWN      SUNNY     41  35  79 SE5       30.05R
N BAR RANCH      N/A     48  32  53 NW9       30.06S
CHINOOK          N/A     55  37  50 W9        29.92S
FORT BENTON      N/A     52  39  62 CALM      30.02R
$$

MTZ017>020-022>027-061-062-271400-
NORTHEAST MONTANA

CITY           SKY/WX    TMP DP  RH WIND       PRES   REMARKS
GLASGOW        CLOUDY    49  40  71 SW3       29.90S
JORDAN           N/A     49  36  61 W9        29.94S
SIDNEY         CLOUDY    55  40  56 SW8       29.89S
WOLF POINT     CLOUDY    51  40  65 W8        29.90S
MALTA          CLOUDY    48  41  76 W10       29.91S
PLENTYWOOD       N/A     48  39  71 NW5       29.85F
POPLAR           N/A     52  39  62 SW7       29.89S
SCOBEY           N/A     51  33  50 CALM      29.86R
$$

MTZ028>42-056>058-271400-
SOUTHCENTRAL AND SOUTHEAST MONTANA

CITY           SKY/WX    TMP DP  RH WIND       PRES   REMARKS
BAKER          MOSUNNY   48  39  71 W8        29.98R
BILLINGS       MOSUNNY   44  36  73 SW16      30.05R
LIVINGSTON     CLOUDY    40  37  89 NW13      30.12R
MILES CITY     PTSUNNY   44  37  76 S5        29.98R
BIG TIMBER     SUNNY     48  36  61 W18       30.12R
EKALAKA          N/A     49  38  65 SW6       29.98R
FORSYTH          N/A     48  39  71 SW3       29.99R
LAUREL           N/A     42  34  73 SW2       30.05F
ROUNDUP          N/A     42  34  73 S12       29.94R
$$

REGIONAL REPORTS...DAKOTAS

CITY           SKY/WX    TMP DP  RH WIND       PRES   REMARKS
WILLISTON      MOSUNNY   53  41  63 SW13      29.86F
MINOT          CLOUDY    55  42  61 SW12      29.81S
DICKINSON      SUNNY     51  37  58 W13       29.91R
BEACH          CLOUDY    50  41  71 W13G18    29.96S
CROSBY         PTSUNNY   52  41  66 W14       29.82F
TIOGA            N/A     50  46  87 W14       29.86S
WATFORD CITY   PTSUNNY   52  43  71 SW10      29.87S
BISMARCK       SUNNY     52  39  61 CALM      29.89R
GRAND FORKS    MOSUNNY   59  44  57 W10       29.77F
FARGO          CLOUDY    56  45  66 SW8       29.82S
BUFFALO SD       N/A     48  42  80 W9        29.91S
RAPID CITY     CLOUDY    50  46  86 CALM      30.00R
$$

REGIONAL REPORTS...WYOMING/IDAHO/WASHINGTON

CITY           SKY/WX    TMP DP  RH WIND       PRES   REMARKS
GILLETTE       SUNNY     46  43  89 W14       30.05R
SHERIDAN       MOSUNNY   48  41  76 NE3       30.06R
BUFFALO WY     PTSUNNY   49  35  58 W7        30.08S
CODY           SUNNY     44  35  70 SW6       30.13R
YELLOWSTONE LA   N/A     31  31 100 CALM      30.24R
IDAHO FALLS    SUNNY     35  35 100 NW3       30.21R
SALMON         CLEAR     39  37  93 CALM      30.18R
BOISE          CLEAR     49  40  71 SE9       30.14R
SPOKANE        CLEAR     52  40  63 SE7       30.08R
$$

REGIONAL REPORTS...ALBERTA

CITY           SKY/WX    TMP DP  RH WIND       PRES   REMARKS
EDMONTON       SUNNY     55  45  67 W9        29.85S
CALGARY        MOSUNNY   59  34  38 W6        29.99R
MEDICINE HAT   PTSUNNY   57  43  58 W9        29.91R
WATERTON GATE    N/A     50  34  53 S13G21      N/A
CARDSTON         N/A     50  36  57 SW8         N/A
MILK RIVER       N/A     52  37  58 W14         N/A
$$

REGIONAL REPORTS...SASKATCHEWAN

CITY           SKY/WX    TMP DP  RH WIND       PRES   REMARKS
SWIFT CURRENT  SUNNY     50  43  76 W13G25    29.85R
REGINA         MOSUNNY   50  45  81 NW9       29.80R
VAL MARIE        N/A     50  39  66 NW7         N/A
ROCKGLEN         N/A     52  41  66 W15         N/A
ASSINIBOIA       N/A     50  45  81 E1          N/A
$$




USA.gov is the U.S. government's official web portal to all federal, state and local government web resources and services.